Regional Weather Roundup
Issued by NWS Upton, NY

Current Version | Previous Version | Graphics & Text | Print | Product List | Glossary Off
Versions: 1 2 3 4 5 6 7 8 9 10 11 12 13 14 15 16 17 18 19 20 21 22 23 24 25 26 27 28 29 30 31 32 33 34 35 36 37 38 39 40 41 42 43 44 45 46 47 48 49 50

000
ASUS41 KOKX 190805
RWROKX

REGIONAL WEATHER ROUNDUP
NATIONAL WEATHER SERVICE NEW YORK NY
400 AM EDT FRI SEP 19 2014

NOTE: "FAIR" INDICATES FEW OR NO CLOUDS BELOW 12,000 FEET WITH NO
SIGNIFICANT WEATHER AND/OR OBSTRUCTIONS TO VISIBILITY.

NYZ071-072-176-178-NJZ106-104-190900-
NEW YORK CITY METRO AREA


CITY           SKY/WX    TMP DP  RH WIND       PRES   REMARKS
CENTRAL PARK   CLEAR     61  47  59 VRB7      30.20R
LAGUARDIA APRT CLEAR     60  50  69 N8        30.17R
KENNEDY INTL   CLEAR     60  51  72 N9        30.17R
NEWARK/LIBERTY CLEAR     58  49  72 N13       30.18R
BRNX BOT. GARD   N/A     57  48  72 W1        30.20R
TETERBORO      CLEAR     57  48  72 N7        30.17R
$$

NYZ177-179-078>081-190900-
LONG ISLAND NEW YORK

CITY           SKY/WX    TMP DP  RH WIND       PRES   REMARKS
FARMINGDALE    CLEAR     58  51  78 NE9       30.17R
ISLIP          CLEAR     58  51  78 N10       30.16R
SHIRLEY        CLEAR     57  51  80 N7        30.18R
WESTHAMPTON    CLEAR     58  49  72 N12       30.18R
MONTAUK POINT    N/A     59  45  59 N13G21    30.18R
$$

NYZ052-065-067-190900-
HUDSON VALLEY

CITY           SKY/WX    TMP DP  RH WIND       PRES   REMARKS
WHITE PLAINS   CLEAR     53  48  83 N6        30.18R
NEWBURGH       NOT AVBL
MONTGOMERY     CLOUDY    50  46  86 NE6       30.22R
POUGHKEEPSIE   CLEAR     48  43  82 N5        30.22R
ALBANY         PTCLDY    45  36  70 N7        30.29R
$$

NJZ001-105-106-008-010-013-015-019>022-104-190900-
NEW JERSEY

CITY           SKY/WX    TMP DP  RH WIND       PRES   REMARKS
NEWARK/LIBERTY CLEAR     58  49  72 N13       30.18R
TETERBORO      CLEAR     57  48  72 N7        30.17R
CALDWELL       CLEAR     53  47  79 NE3       30.20R
MORRISTOWN     CLEAR     54  48  82 CALM      30.19R
SOMERVILLE     CLEAR     52  48  86 NW5       30.17R
LINDEN         FAIR      63  52  68 N8        30.19R
SUSSEX         CLOUDY    54  47  77 NE8       30.21R
ANDOVER          N/A     50  48  93 VRB3      30.20R
TRENTON        CLEAR     56  49  77 N7        30.17R
MILLVILLE      CLEAR     57  52  83 N7        30.14R
ATLANTIC CITY  CLEAR     55  53  93 N8        30.14R
WRIGHTSTOWN    CLEAR     55  50  83 N8        30.14R
TOMS RIVER     CLEAR     54  50  87 CALM      30.15R
BELMAR         CLEAR     61  48  63 N9        30.15R
$$

PAZ047>061-062-071-190900-
EASTERN PENNSYLVANIA

CITY           SKY/WX    TMP DP  RH WIND       PRES   REMARKS
PHILADELPHIA   CLEAR     59  50  72 N8        30.17R
ALLENTOWN      CLEAR     51  46  83 CALM      30.19R
SCRANTON       CLEAR     49  44  83 NE7       30.22R
$$

CTZ002-004>006-009-010-012-RIZ004-006-007-MAZ004-011-015-190900-
SOUTHERN NEW ENGLAND
 IN CT

CITY           SKY/WX    TMP DP  RH WIND       PRES   REMARKS
BRADLEY INTL   PTCLDY    47  39  74 N6        30.23R
HARTFORD       MOCLDY    51  39  63 N12       30.23R
DANBURY        MOCLDY    54  48  80 NE7       30.21R
WTRBRY/OXFORD  PTCLDY    48  36  61 NE10G16   30.22R
BRIDGEPORT     CLEAR     56  46  69 NE14      30.20R
MERIDEN        CLOUDY    52  39  61 N6        30.22R
NEW HAVEN      MOCLDY    56  44  64 N14G22    30.20R
CHESTER        PTSUNNY   54  46  76 NE6       30.20R
GROTON         PTCLDY    52  43  71 N10       30.18R
WILLIMANTIC    MOCLDY    51  39  63 N7        30.22R

 IN RI

CITY           SKY/WX    TMP DP  RH WIND       PRES   REMARKS
PROVIDENCE     MOCLDY    52  39  61 N12       30.21R
BLOCK ISLAND   PTCLDY    57  43  58 NE15G22   30.17R
WESTERLY       MOCLDY    54  41  61 N9        30.19R

 IN MA

CITY           SKY/WX    TMP DP  RH WIND       PRES   REMARKS
BOSTON         PTCLDY    50  38  63 N14       30.23R
WORCESTER      CLEAR     44  34  67 N10       30.22R
WESTFIELD      PTCLDY    44  39  82 N7        30.24R
PROVINCETOWN   CLEAR     55  41  58 N17G24    30.20R
NANTUCKET      CLOUDY    59  47  64 N22       30.15R
$$

ANZ330-335-338-340-345-350-353-355-190900-
COASTAL MARINE OBSERVATIONS


STATION/POSITION TIME  SKY/WX   TEMP    WIND        PRES    VSBY  WAVE
                                AIR SEA DIR/SP/G                  HT/PER
                 (UTC)          (F)     (DEG/KT/KT) (MB)    (MI)  (FT/S)
NY HARB ENTRANCE 0800            64 70   30/ 19/ 23 1020.7          3/ 4
4S FIRE IS       0800               70                N/A           3/10
23SW MTP         0800                                 N/A           4/ 5
HUDSON CANYON    0800            69 72  320/ 10/ 12 1019.3          2/ 9
EXECUTION ROCKS  0800            62 71   20/ 12/ 16   N/A
WESTERN LI SOUND 0800            61      40/ 14/ 16   N/A           1/ 3
CENTRAL LI SOUND 0700            58 70   40/ 17/ 21   N/A           2/ 3
EASTERN LI SOUND 0700            57 67   20/ 16/ 21   N/A
ROBBINS REEF     0800            60     360/ 15/ 17 1020.2
$$


>>>>>>>>>>>>>>>>>>>>>>>>>>>> KEY <<<<<<<<<<<<<<<<<<<<<<<<<<<
>                                                          <
>     SKY/WX - SKY CONDITION/PRESENT WEATHER               <
>     TMP    - TEMPERATURE IN FAHRENHEIT                   <
>     DP     - DEWPOINT IN FAHRENHEIT                      <
>     RH     - RELATIVE HUMIDITY IN PERCENT                <
>     WIND   - DIRECTION AND SPEED IN MPH                  <
>     PRES   - MEAN SEA LEVEL PRESSURE IN INCHES OF HG     <
>     WCI    - WIND CHILL INDEX                            <
>     VSB    - VISIBILITY IN MILES                         <
>     HX     - HEAT INDEX                                  <
>     TC     - TEMPERATURE IN CELSIUS                      <
>     VRB    - VARIABLE WIND DIRECTION                     <
>                                                          <
>>>>>>>>>>>>>>>>>>>>>>>>>>>> KEY <<<<<<<<<<<<<<<<<<<<<<<<<<<




USA.gov is the U.S. government's official web portal to all federal, state and local government web resources and services.